{"data":{"norad_id":49209,"epoch":"2026-05-25T01:58:25.796064Z","epoch_age_seconds":64959,"freshness":"FRESH","line1":"1 49209U 21083Z   26145.08224301  .00000004  00000+0 -23583-4 0  9995","line2":"2 49209  87.9168 340.0558 0001411  84.9179 275.2114 13.18684700226993","mean_motion":13.186847,"eccentricity":0.0001411,"inclination_deg":87.9168,"raan_deg":340.0558,"arg_perigee_deg":84.9179,"mean_anomaly_deg":275.2114,"bstar":-2.3583e-5,"rev_number":22699,"period_min":109.19971999372,"perigee_km":1188.6802720447,"apogee_km":1190.8159292201,"semimajor_km":7567.8851006324,"source":"CELESTRAK","updated_at":"2026-05-25T13:38:22.515412Z"}}